Weather in Nagornoe

Ukraine / Odesa District     45°25′46″N   28°26′55″E
temp.,
°C
wind,
m/s
gust,
m/s
humid.,
%
clouds,
%
prec.,
mm/h
press.,
hPa
HPBL,
m
21 june, mon
mon2100:00+20nnw358875 0.1 1011125
03:00+18nw239315 0.1 101159
06:00+18nnw23945 0.0 101171
09:00+22n227879 0.0 1011456
12:00+25s22629 0.0 10121148
15:00+27ssw225224 0.0 10111181
18:00+27wsw325190 0.0 1010908
21:00+24wsw226782 0.0 101011
22 june, tue
tue2200:00+21wsw117575 0.1 101111
03:00+20wnw22797 0.3 101124
06:00+20nne348121 0.0 101176
09:00+24wsw2167100 0.0 1011307
12:00+26w336079 0.0 1011847
15:00+29nw33498 0.0 10111541
18:00+30nw234855 0.1 10101604
21:00+26wsw2264100 1.3 101029
23 june, wed
wed2300:00+22wnw468081 1.4 101190
03:00+21w338210 3.1 101136
06:00+21nnw338422 0.1 101152
09:00+26n34695 0.2 1012407
12:00+29nne45595 0.6 10121182
15:00+32ne234780 0.9 10122003
18:00+30e015992 0.0 101285
21:00+22wsw3692100 8.1 1014431
24 june, thu
thu2400:00+20s4791100 18.9 1014161
03:00+19nw489242 18.9 1014201
06:00+20wsw11902 0.0 101527
09:00+24n237446 0.0 1015392
12:00+28n346360 0.0 10151054
15:00+31nnw3451100 0.0 10141872
18:00+30nnw455798 0.0 10141143
21:00+26nw477467 0.0 1014108
25 june, fri
fri2500:00+24nnw35817 0.0 101477
03:00+23nw22830 0.0 101419
06:00+22nw33840 0.0 101443
09:00+27wnw22670 0.0 1014418
12:00+30nnw125411 0.0 10141041
15:00+32ssw32480 0.0 10131433
18:00+31ssw34520 0.0 1013424
21:00+23nnw51077100 0.3 1013168